INTELSAT 32E (IS-32E) (41945 NORAD) Tracking and Keplerian Element Data

This shows tracking and keplerian element data for the satellite.

Feedback or suggestion? Click here.




ElementValue
Catalog41945
NameINTELSAT 32E (IS-32E)
Epoch Orbit2925
Epoch Day35.04650625
Epoch Year2025
RAAN88.9222
Inclination0.0161
Eccentricity3E-06
Argument of Perigee42.0078
Mean Anonmoly337.0682
Mean Motion1.00269064
Decay Rate-2.65E-06
L11 41945U 17007B 25035.04650625 -.00000265 00000+0 00000+0 0 9993
L22 41945 0.0161 88.9222 0000030 42.0078 337.0682 1.00269064 29253



Live tracking and technical data element details for INTELSAT 32E (IS-32E) (NORAD 41945). INTELSAT 32E (IS-32E) can be tracked NOW for your location showing map with azimuth and elevation plus other details from your city location.







IsCatalogInMostPopularTable: catalog: 41945, numindb: 964
Update: records affected: 1



GetName: 41945 INTELSAT 32E (IS-32E)

Hit Count: updated at: Fri, 18 Jul 2025 16:49:12 GMT